owner,sensor,date,latitude,longitude,vertical_datum,mass_concentration_of_oxygen_in_sea_water,qcFlag 
DISL,ioos:station:DISL:DISL:1,2008-05-01T00:00:00Z,30.2513,-88.0778,6.467,8.08,1111122 
DISL,ioos:station:DISL:DISL:1,2008-05-01T00:30:00Z,30.2513,-88.0778,6.48,8.0,1111122 
DISL,ioos:station:DISL:DISL:1,2008-05-01T01:00:00Z,30.2513,-88.0778,6.49,8.58,1111122 
DISL,ioos:station:DISL:DISL:1,2008-05-01T01:30:00Z,30.2513,-88.0778,6.479,8.63,1111122 
DISL,ioos:station:DISL:DISL:1,2008-05-01T02:00:00Z,30.2513,-88.0778,6.456,8.49,1111122 
DISL,ioos:station:DISL:DISL:1,2008-05-01T02:30:00Z,30.2513,-88.0778,6.38,8.46,1111122 
DISL,ioos:station:DISL:DISL:1,2008-05-01T03:00:00Z,30.2513,-88.0778,6.363,8.14,1111122 
DISL,ioos:station:DISL:DISL:1,2008-05-01T03:30:00Z,30.2513,-88.0778,6.319,7.89,1111122 
DISL,ioos:station:DISL:DISL:1,2008-05-01T04:00:00Z,30.2513,-88.0778,6.274,7.46,1111122 
DISL,ioos:station:DISL:DISL:1,2008-05-01T04:30:00Z,30.2513,-88.0778,6.228,7.19,1111122 
DISL,ioos:station:DISL:DISL:1,2008-05-01T05:00:00Z,30.2513,-88.0778,6.16,7.05,1111122 
DISL,ioos:station:DISL:DISL:1,2008-05-01T05:30:00Z,30.2513,-88.0778,6.135,6.8,1111122 
DISL,ioos:station:DISL:DISL:1,2008-05-01T06:00:00Z,30.2513,-88.0778,6.128,6.78,1111122 
DISL,ioos:station:DISL:DISL:1,2008-05-01T06:30:00Z,30.2513,-88.0778,6.113,6.73,1111122 
DISL,ioos:station:DISL:DISL:1,2008-05-01T07:00:00Z,30.2513,-88.0778,6.12,6.33,1111122 
DISL,ioos:station:DISL:DISL:1,2008-05-01T07:30:00Z,30.2513,-88.0778,6.159,6.06,1111122 
DISL,ioos:station:DISL:DISL:1,2008-05-01T08:00:00Z,30.2513,-88.0778,6.083,5.74,1111122 
DISL,ioos:station:DISL:DISL:1,2008-05-01T08:30:00Z,30.2513,-88.0778,6.108,5.61,1111122 
DISL,ioos:station:DISL:DISL:1,2008-05-01T09:00:00Z,30.2513,-88.0778,6.163,5.35,1111122 
DISL,ioos:station:DISL:DISL:1,2008-05-01T09:30:00Z,30.2513,-88.0778,6.156,5.19,1111122 
DISL,ioos:station:DISL:DISL:1,2008-05-01T10:00:00Z,30.2513,-88.0778,6.216,5.45,1111122 
DISL,ioos:station:DISL:DISL:1,2008-05-01T10:30:00Z,30.2513,-88.0778,6.146,5.34,1111122 
DISL,ioos:station:DISL:DISL:1,2008-05-01T11:00:00Z,30.2513,-88.0778,6.196,5.86,1111122 
DISL,ioos:station:DISL:DISL:1,2008-05-01T11:30:00Z,30.2513,-88.0778,6.174,5.89,1111122 
DISL,ioos:station:DISL:DISL:1,2008-05-01T12:00:00Z,30.2513,-88.0778,6.203,5.97,1111122 
DISL,ioos:station:DISL:DISL:1,2008-05-01T12:30:00Z,30.2513,-88.0778,6.253,5.61,1111122 
DISL,ioos:station:DISL:DISL:1,2008-05-01T13:00:00Z,30.2513,-88.0778,6.315,5.66,1111122 
DISL,ioos:station:DISL:DISL:1,2008-05-01T13:30:00Z,30.2513,-88.0778,6.368,5.74,1111122 
DISL,ioos:station:DISL:DISL:1,2008-05-01T14:00:00Z,30.2513,-88.0778,6.459,6.57,1111122 
DISL,ioos:station:DISL:DISL:1,2008-05-01T14:30:00Z,30.2513,-88.0778,6.453,6.88,1111122 
DISL,ioos:station:DISL:DISL:1,2008-05-01T15:00:00Z,30.2513,-88.0778,6.411,6.96,1111122 
DISL,ioos:station:DISL:DISL:1,2008-05-01T15:30:00Z,30.2513,-88.0778,6.424,7.06,1111122 
DISL,ioos:station:DISL:DISL:1,2008-05-01T16:00:00Z,30.2513,-88.0778,6.425,7.02,1111122 
DISL,ioos:station:DISL:DISL:1,2008-05-01T16:30:00Z,30.2513,-88.0778,6.466,6.98,1111122 
DISL,ioos:station:DISL:DISL:1,2008-05-01T17:00:00Z,30.2513,-88.0778,6.479,7.1,1111122 
DISL,ioos:station:DISL:DISL:1,2008-05-01T17:30:00Z,30.2513,-88.0778,6.423,6.93,1111122 
DISL,ioos:station:DISL:DISL:1,2008-05-01T18:00:00Z,30.2513,-88.0778,6.433,7.34,1111122 
DISL,ioos:station:DISL:DISL:1,2008-05-01T18:30:00Z,30.2513,-88.0778,6.392,7.17,1111122 
DISL,ioos:station:DISL:DISL:1,2008-05-01T19:00:00Z,30.2513,-88.0778,6.398,6.83,1111122 
DISL,ioos:station:DISL:DISL:1,2008-05-01T19:30:00Z,30.2513,-88.0778,6.354,6.79,1111122 
DISL,ioos:station:DISL:DISL:1,2008-05-01T20:00:00Z,30.2513,-88.0778,6.376,6.82,1111122 
DISL,ioos:station:DISL:DISL:1,2008-05-01T20:30:00Z,30.2513,-88.0778,6.397,6.97,1111122 
DISL,ioos:station:DISL:DISL:1,2008-05-01T21:00:00Z,30.2513,-88.0778,6.396,6.9,1111122 
DISL,ioos:station:DISL:DISL:1,2008-05-01T21:30:00Z,30.2513,-88.0778,6.398,7.17,1111122 
DISL,ioos:station:DISL:DISL:1,2008-05-01T22:00:00Z,30.2513,-88.0778,6.424,6.82,1111122 
DISL,ioos:station:DISL:DISL:1,2008-05-01T22:30:00Z,30.2513,-88.0778,6.403,6.1,1111122 
DISL,ioos:station:DISL:DISL:1,2008-05-01T23:00:00Z,30.2513,-88.0778,6.432,5.99,1111122 
DISL,ioos:station:DISL:DISL:1,2008-05-01T23:30:00Z,30.2513,-88.0778,6.387,6.46,1111122 
DISL,ioos:station:DISL:DISL:1,2008-05-02T00:00:00Z,30.2513,-88.0778,6.437,6.86,1111122 
DISL,ioos:station:DISL:DISL:1,2008-05-02T00:30:00Z,30.2513,-88.0778,6.452,6.96,1111122 
DISL,ioos:station:DISL:DISL:1,2008-05-02T01:00:00Z,30.2513,-88.0778,6.515,7.09,1111122 
DISL,ioos:station:DISL:DISL:1,2008-05-02T01:30:00Z,30.2513,-88.0778,6.573,7.09,1111122 
DISL,ioos:station:DISL:DISL:1,2008-05-02T02:00:00Z,30.2513,-88.0778,6.596,7.09,1111122 
DISL,ioos:station:DISL:DISL:1,2008-05-02T02:30:00Z,30.2513,-88.0778,6.612,7.29,1111122 
DISL,ioos:station:DISL:DISL:1,2008-05-02T03:00:00Z,30.2513,-88.0778,6.645,7.27,1111122 
DISL,ioos:station:DISL:DISL:1,2008-05-02T03:30:00Z,30.2513,-88.0778,6.661,7.24,1111122 
DISL,ioos:station:DISL:DISL:1,2008-05-02T04:00:00Z,30.2513,-88.0778,6.672,7.18,1111122 
DISL,ioos:station:DISL:DISL:1,2008-05-02T04:30:00Z,30.2513,-88.0778,6.719,7.08,1111122 
DISL,ioos:station:DISL:DISL:1,2008-05-02T05:00:00Z,30.2513,-88.0778,6.756,7.14,1111122 
DISL,ioos:station:DISL:DISL:1,2008-05-02T05:30:00Z,30.2513,-88.0778,6.752,7.11,1111122 
DISL,ioos:station:DISL:DISL:1,2008-05-02T06:00:00Z,30.2513,-88.0778,6.79,7.13,1111122 
DISL,ioos:station:DISL:DISL:1,2008-05-02T06:30:00Z,30.2513,-88.0778,6.844,7.09,1111122 
DISL,ioos:station:DISL:DISL:1,2008-05-02T07:00:00Z,30.2513,-88.0778,6.872,7.07,1111122 
DISL,ioos:station:DISL:DISL:1,2008-05-02T07:30:00Z,30.2513,-88.0778,6.917,7.02,1111122 
DISL,ioos:station:DISL:DISL:1,2008-05-02T08:00:00Z,30.2513,-88.0778,6.945,6.87,1111122 
DISL,ioos:station:DISL:DISL:1,2008-05-02T08:30:00Z,30.2513,-88.0778,6.994,6.8,1111122 
DISL,ioos:station:DISL:DISL:1,2008-05-02T09:00:00Z,30.2513,-88.0778,6.984,6.44,1111122 
DISL,ioos:station:DISL:DISL:1,2008-05-02T09:30:00Z,30.2513,-88.0778,7.04,6.23,1111122 
DISL,ioos:station:DISL:DISL:1,2008-05-02T10:00:00Z,30.2513,-88.0778,7.02,6.59,1111122 
DISL,ioos:station:DISL:DISL:1,2008-05-02T10:30:00Z,30.2513,-88.0778,7.09,6.51,1111122 
DISL,ioos:station:DISL:DISL:1,2008-05-02T11:00:00Z,30.2513,-88.0778,7.02,6.69,1111122 
DISL,ioos:station:DISL:DISL:1,2008-05-02T11:30:00Z,30.2513,-88.0778,7.03,6.59,1111122 
DISL,ioos:station:DISL:DISL:1,2008-05-02T12:00:00Z,30.2513,-88.0778,7.05,6.4,1111122 
DISL,ioos:station:DISL:DISL:1,2008-05-02T12:30:00Z,30.2513,-88.0778,7.13,6.45,1111122 
DISL,ioos:station:DISL:DISL:1,2008-05-02T13:00:00Z,30.2513,-88.0778,7.13,6.64,1111122 
DISL,ioos:station:DISL:DISL:1,2008-05-02T13:30:00Z,30.2513,-88.0778,7.11,6.57,1111122 
DISL,ioos:station:DISL:DISL:1,2008-05-02T14:00:00Z,30.2513,-88.0778,7.15,6.44,1111122 
DISL,ioos:station:DISL:DISL:1,2008-05-02T14:30:00Z,30.2513,-88.0778,7.13,6.45,1111122 
DISL,ioos:station:DISL:DISL:1,2008-05-02T15:00:00Z,30.2513,-88.0778,7.1,6.52,1111122 
DISL,ioos:station:DISL:DISL:1,2008-05-02T15:30:00Z,30.2513,-88.0778,7.06,6.58,1111122 
DISL,ioos:station:DISL:DISL:1,2008-05-02T16:00:00Z,30.2513,-88.0778,6.992,6.75,1111122 
DISL,ioos:station:DISL:DISL:1,2008-05-02T16:30:00Z,30.2513,-88.0778,6.993,6.86,1111122 
DISL,ioos:station:DISL:DISL:1,2008-05-02T17:00:00Z,30.2513,-88.0778,6.865,7.01,1111122 
DISL,ioos:station:DISL:DISL:1,2008-05-02T17:30:00Z,30.2513,-88.0778,6.863,7.24,1111122 
DISL,ioos:station:DISL:DISL:1,2008-05-02T18:00:00Z,30.2513,-88.0778,6.773,7.35,1111122 
DISL,ioos:station:DISL:DISL:1,2008-05-02T18:30:00Z,30.2513,-88.0778,6.778,7.11,1111122 
DISL,ioos:station:DISL:DISL:1,2008-05-02T19:00:00Z,30.2513,-88.0778,6.714,7.22,1111122 
DISL,ioos:station:DISL:DISL:1,2008-05-02T19:30:00Z,30.2513,-88.0778,6.687,7.21,1111122 
DISL,ioos:station:DISL:DISL:1,2008-05-02T20:00:00Z,30.2513,-88.0778,6.661,7.31,1111122 
DISL,ioos:station:DISL:DISL:1,2008-05-02T20:30:00Z,30.2513,-88.0778,6.657,7.41,1111122 
DISL,ioos:station:DISL:DISL:1,2008-05-02T21:00:00Z,30.2513,-88.0778,6.62,7.4,1111122 
DISL,ioos:station:DISL:DISL:1,2008-05-02T21:30:00Z,30.2513,-88.0778,6.601,7.43,1111122 
DISL,ioos:station:DISL:DISL:1,2008-05-02T22:00:00Z,30.2513,-88.0778,6.621,7.43,1111122 
DISL,ioos:station:DISL:DISL:1,2008-05-02T22:30:00Z,30.2513,-88.0778,6.621,7.51,1111122 
DISL,ioos:station:DISL:DISL:1,2008-05-02T23:00:00Z,30.2513,-88.0778,6.607,7.5,1111122 
DISL,ioos:station:DISL:DISL:1,2008-05-02T23:30:00Z,30.2513,-88.0778,6.61,7.5,1111122 
DISL,ioos:station:DISL:DISL:1,2008-05-03T00:00:00Z,30.2513,-88.0778,6.657,7.49,1111122 
DISL,ioos:station:DISL:DISL:1,2008-05-03T00:30:00Z,30.2513,-88.0778,6.645,7.47,1111122 
DISL,ioos:station:DISL:DISL:1,2008-05-03T01:00:00Z,30.2513,-88.0778,6.534,7.31,1111122 
DISL,ioos:station:DISL:DISL:1,2008-05-03T01:30:00Z,30.2513,-88.0778,6.736,7.04,1111122 
DISL,ioos:station:DISL:DISL:1,2008-05-03T02:00:00Z,30.2513,-88.0778,6.783,7.09,1111122 
DISL,ioos:station:DISL:DISL:1,2008-05-03T02:30:00Z,30.2513,-88.0778,6.718,7.09,1111122 
DISL,ioos:station:DISL:DISL:1,2008-05-03T03:00:00Z,30.2513,-88.0778,6.688,7.11,1111122 
DISL,ioos:station:DISL:DISL:1,2008-05-03T03:30:00Z,30.2513,-88.0778,6.733,7.14,1111122 
DISL,ioos:station:DISL:DISL:1,2008-05-03T04:00:00Z,30.2513,-88.0778,6.703,6.92,1111122 
DISL,ioos:station:DISL:DISL:1,2008-05-03T04:30:00Z,30.2513,-88.0778,6.758,6.69,1111122 
DISL,ioos:station:DISL:DISL:1,2008-05-03T05:00:00Z,30.2513,-88.0778,6.818,6.77,1111122 
DISL,ioos:station:DISL:DISL:1,2008-05-03T05:30:00Z,30.2513,-88.0778,6.897,6.71,1111122 
DISL,ioos:station:DISL:DISL:1,2008-05-03T06:00:00Z,30.2513,-88.0778,6.937,6.72,1111122 
DISL,ioos:station:DISL:DISL:1,2008-05-03T06:30:00Z,30.2513,-88.0778,7.05,6.89,1111122 
DISL,ioos:station:DISL:DISL:1,2008-05-03T07:00:00Z,30.2513,-88.0778,7.12,6.75,1111122 
DISL,ioos:station:DISL:DISL:1,2008-05-03T07:30:00Z,30.2513,-88.0778,7.17,6.64,1111122 
DISL,ioos:station:DISL:DISL:1,2008-05-03T08:00:00Z,30.2513,-88.0778,7.14,6.56,1111122 
DISL,ioos:station:DISL:DISL:1,2008-05-03T08:30:00Z,30.2513,-88.0778,7.17,6.54,1111122 
DISL,ioos:station:DISL:DISL:1,2008-05-03T09:00:00Z,30.2513,-88.0778,7.28,6.48,1111122 
DISL,ioos:station:DISL:DISL:1,2008-05-03T09:30:00Z,30.2513,-88.0778,7.4,6.6,1111122 
DISL,ioos:station:DISL:DISL:1,2008-05-03T10:00:00Z,30.2513,-88.0778,7.46,6.35,1111122 
DISL,ioos:station:DISL:DISL:1,2008-05-03T10:30:00Z,30.2513,-88.0778,7.47,6.19,1111122 
DISL,ioos:station:DISL:DISL:1,2008-05-03T11:00:00Z,30.2513,-88.0778,7.48,6.21,1111122 
DISL,ioos:station:DISL:DISL:1,2008-05-03T11:30:00Z,30.2513,-88.0778,7.52,5.89,1111122 
DISL,ioos:station:DISL:DISL:1,2008-05-03T12:00:00Z,30.2513,-88.0778,7.43,5.83,1111122 
DISL,ioos:station:DISL:DISL:1,2008-05-03T12:30:00Z,30.2513,-88.0778,7.38,5.75,1111122 
DISL,ioos:station:DISL:DISL:1,2008-05-03T13:00:00Z,30.2513,-88.0778,7.35,5.74,1111122 
DISL,ioos:station:DISL:DISL:1,2008-05-03T13:30:00Z,30.2513,-88.0778,7.38,5.96,1111122 
DISL,ioos:station:DISL:DISL:1,2008-05-03T14:00:00Z,30.2513,-88.0778,7.28,6.7,1111122 
DISL,ioos:station:DISL:DISL:1,2008-05-03T14:30:00Z,30.2513,-88.0778,7.27,6.95,1111122 
DISL,ioos:station:DISL:DISL:1,2008-05-03T15:00:00Z,30.2513,-88.0778,7.24,6.71,1111122 
DISL,ioos:station:DISL:DISL:1,2008-05-03T15:30:00Z,30.2513,-88.0778,7.36,6.76,1111122 
DISL,ioos:station:DISL:DISL:1,2008-05-03T16:00:00Z,30.2513,-88.0778,7.37,6.58,1111122 
DISL,ioos:station:DISL:DISL:1,2008-05-03T16:30:00Z,30.2513,-88.0778,7.29,6.1,1111122 
DISL,ioos:station:DISL:DISL:1,2008-05-03T17:00:00Z,30.2513,-88.0778,7.18,6.61,1111122 
DISL,ioos:station:DISL:DISL:1,2008-05-03T17:30:00Z,30.2513,-88.0778,6.962,6.22,1111122 
DISL,ioos:station:DISL:DISL:1,2008-05-03T18:00:00Z,30.2513,-88.0778,7.02,7.44,1111122 
DISL,ioos:station:DISL:DISL:1,2008-05-03T18:30:00Z,30.2513,-88.0778,6.732,7.5,1111122 
DISL,ioos:station:DISL:DISL:1,2008-05-03T19:00:00Z,30.2513,-88.0778,6.616,7.39,1111122 
DISL,ioos:station:DISL:DISL:1,2008-05-03T19:30:00Z,30.2513,-88.0778,6.683,8.06,1111122 
DISL,ioos:station:DISL:DISL:1,2008-05-03T20:00:00Z,30.2513,-88.0778,6.528,8.14,1111122 
DISL,ioos:station:DISL:DISL:1,2008-05-03T20:30:00Z,30.2513,-88.0778,6.614,8.54,1111122 
DISL,ioos:station:DISL:DISL:1,2008-05-03T21:00:00Z,30.2513,-88.0778,6.424,8.55,1111122 
DISL,ioos:station:DISL:DISL:1,2008-05-03T21:30:00Z,30.2513,-88.0778,6.388,8.8,1111122 
DISL,ioos:station:DISL:DISL:1,2008-05-03T22:00:00Z,30.2513,-88.0778,6.235,9.0,1111122 
DISL,ioos:station:DISL:DISL:1,2008-05-03T22:30:00Z,30.2513,-88.0778,6.291,8.88,1111122 
DISL,ioos:station:DISL:DISL:1,2008-05-03T23:00:00Z,30.2513,-88.0778,6.189,9.31,1111122 
DISL,ioos:station:DISL:DISL:1,2008-05-03T23:30:00Z,30.2513,-88.0778,6.142,8.87,1111122 
DISL,ioos:station:DISL:DISL:1,2008-05-04T00:00:00Z,30.2513,-88.0778,6.186,8.61,1111122 
DISL,ioos:station:DISL:DISL:1,2008-05-04T00:30:00Z,30.2513,-88.0778,6.255,8.4,1111122 
DISL,ioos:station:DISL:DISL:1,2008-05-04T01:00:00Z,30.2513,-88.0778,6.138,8.22,1111122 
DISL,ioos:station:DISL:DISL:1,2008-05-04T01:30:00Z,30.2513,-88.0778,6.192,8.03,1111122 
DISL,ioos:station:DISL:DISL:1,2008-05-04T02:00:00Z,30.2513,-88.0778,6.154,7.74,1111122 
DISL,ioos:station:DISL:DISL:1,2008-05-04T02:30:00Z,30.2513,-88.0778,6.2,7.76,1111122 
DISL,ioos:station:DISL:DISL:1,2008-05-04T03:00:00Z,30.2513,-88.0778,6.312,7.93,1111122 
DISL,ioos:station:DISL:DISL:1,2008-05-04T03:30:00Z,30.2513,-88.0778,6.334,7.88,1111122 
DISL,ioos:station:DISL:DISL:1,2008-05-04T04:00:00Z,30.2513,-88.0778,6.433,7.28,1111122 
DISL,ioos:station:DISL:DISL:1,2008-05-04T04:30:00Z,30.2513,-88.0778,6.495,7.34,1111122 
DISL,ioos:station:DISL:DISL:1,2008-05-04T05:00:00Z,30.2513,-88.0778,6.451,7.15,1111122 
DISL,ioos:station:DISL:DISL:1,2008-05-04T05:30:00Z,30.2513,-88.0778,6.596,7.0,1111122 
DISL,ioos:station:DISL:DISL:1,2008-05-04T06:00:00Z,30.2513,-88.0778,6.615,6.52,1111122 
DISL,ioos:station:DISL:DISL:1,2008-05-04T06:30:00Z,30.2513,-88.0778,6.798,6.74,1111122 
DISL,ioos:station:DISL:DISL:1,2008-05-04T07:00:00Z,30.2513,-88.0778,6.792,6.71,1111122 
DISL,ioos:station:DISL:DISL:1,2008-05-04T07:30:00Z,30.2513,-88.0778,6.842,6.57,1111122 
DISL,ioos:station:DISL:DISL:1,2008-05-04T08:00:00Z,30.2513,-88.0778,6.886,6.53,1111122 
DISL,ioos:station:DISL:DISL:1,2008-05-04T08:30:00Z,30.2513,-88.0778,6.957,6.55,1111122 
DISL,ioos:station:DISL:DISL:1,2008-05-04T09:00:00Z,30.2513,-88.0778,7.01,6.73,1111122 
DISL,ioos:station:DISL:DISL:1,2008-05-04T09:30:00Z,30.2513,-88.0778,7.1,6.84,1111122 
DISL,ioos:station:DISL:DISL:1,2008-05-04T10:00:00Z,30.2513,-88.0778,7.18,6.79,1111122 
DISL,ioos:station:DISL:DISL:1,2008-05-04T10:30:00Z,30.2513,-88.0778,7.26,7.58,1111122 
DISL,ioos:station:DISL:DISL:1,2008-05-04T11:00:00Z,30.2513,-88.0778,7.3,7.79,1111122 
DISL,ioos:station:DISL:DISL:1,2008-05-04T11:30:00Z,30.2513,-88.0778,7.33,7.93,1111122 
DISL,ioos:station:DISL:DISL:1,2008-05-04T12:00:00Z,30.2513,-88.0778,7.3,7.96,1111122 
DISL,ioos:station:DISL:DISL:1,2008-05-04T12:30:00Z,30.2513,-88.0778,7.35,7.93,1111122 
DISL,ioos:station:DISL:DISL:1,2008-05-04T13:00:00Z,30.2513,-88.0778,7.37,7.87,1111122 
DISL,ioos:station:DISL:DISL:1,2008-05-04T13:30:00Z,30.2513,-88.0778,7.33,7.89,1111122 
DISL,ioos:station:DISL:DISL:1,2008-05-04T14:00:00Z,30.2513,-88.0778,7.27,7.97,1111122 
DISL,ioos:station:DISL:DISL:1,2008-05-04T14:30:00Z,30.2513,-88.0778,7.26,7.76,1111122 
DISL,ioos:station:DISL:DISL:1,2008-05-04T15:00:00Z,30.2513,-88.0778,7.25,7.84,1111122 
DISL,ioos:station:DISL:DISL:1,2008-05-04T15:30:00Z,30.2513,-88.0778,7.15,6.54,1111122 
DISL,ioos:station:DISL:DISL:1,2008-05-04T16:00:00Z,30.2513,-88.0778,7.16,7.54,1111122 
DISL,ioos:station:DISL:DISL:1,2008-05-04T16:30:00Z,30.2513,-88.0778,7.08,7.54,1111122 
DISL,ioos:station:DISL:DISL:1,2008-05-04T17:00:00Z,30.2513,-88.0778,7.04,7.58,1111122 
DISL,ioos:station:DISL:DISL:1,2008-05-04T17:30:00Z,30.2513,-88.0778,6.895,7.82,1111122 
DISL,ioos:station:DISL:DISL:1,2008-05-04T18:00:00Z,30.2513,-88.0778,6.82,6.75,1111122 
DISL,ioos:station:DISL:DISL:1,2008-05-04T18:30:00Z,30.2513,-88.0778,6.686,7.04,1111122 
DISL,ioos:station:DISL:DISL:1,2008-05-04T19:00:00Z,30.2513,-88.0778,6.557,7.47,1111122 
DISL,ioos:station:DISL:DISL:1,2008-05-04T19:30:00Z,30.2513,-88.0778,6.423,7.87,1111122 
DISL,ioos:station:DISL:DISL:1,2008-05-04T20:00:00Z,30.2513,-88.0778,6.306,7.8,1111122 
DISL,ioos:station:DISL:DISL:1,2008-05-04T20:30:00Z,30.2513,-88.0778,6.183,7.77,1111122 
DISL,ioos:station:DISL:DISL:1,2008-05-04T21:00:00Z,30.2513,-88.0778,6.074,8.21,1111122 
DISL,ioos:station:DISL:DISL:1,2008-05-04T21:30:00Z,30.2513,-88.0778,6.031,9.59,1111122 
DISL,ioos:station:DISL:DISL:1,2008-05-04T22:00:00Z,30.2513,-88.0778,5.934,9.75,1111122 
DISL,ioos:station:DISL:DISL:1,2008-05-04T22:30:00Z,30.2513,-88.0778,5.866,9.49,1111122 
DISL,ioos:station:DISL:DISL:1,2008-05-04T23:00:00Z,30.2513,-88.0778,5.787,9.42,1111122 
DISL,ioos:station:DISL:DISL:1,2008-05-04T23:30:00Z,30.2513,-88.0778,5.758,9.38,1111122 
DISL,ioos:station:DISL:DISL:1,2008-05-05T00:00:00Z,30.2513,-88.0778,5.653,9.09,1111122 
DISL,ioos:station:DISL:DISL:1,2008-05-05T00:30:00Z,30.2513,-88.0778,5.625,9.05,1111122 
DISL,ioos:station:DISL:DISL:1,2008-05-05T01:00:00Z,30.2513,-88.0778,5.602,8.93,1111122 
DISL,ioos:station:DISL:DISL:1,2008-05-05T01:30:00Z,30.2513,-88.0778,5.584,8.79,1111122 
DISL,ioos:station:DISL:DISL:1,2008-05-05T02:00:00Z,30.2513,-88.0778,5.605,8.49,1111122 
DISL,ioos:station:DISL:DISL:1,2008-05-05T02:30:00Z,30.2513,-88.0778,5.624,8.52,1111122 
DISL,ioos:station:DISL:DISL:1,2008-05-05T03:00:00Z,30.2513,-88.0778,5.649,8.66,1111122 
DISL,ioos:station:DISL:DISL:1,2008-05-05T03:30:00Z,30.2513,-88.0778,5.714,8.7,1111122 
DISL,ioos:station:DISL:DISL:1,2008-05-05T04:00:00Z,30.2513,-88.0778,5.791,8.25,1111122 
DISL,ioos:station:DISL:DISL:1,2008-05-05T04:30:00Z,30.2513,-88.0778,5.824,8.12,1111122 
DISL,ioos:station:DISL:DISL:1,2008-05-05T05:00:00Z,30.2513,-88.0778,5.903,8.05,1111122 
DISL,ioos:station:DISL:DISL:1,2008-05-05T05:30:00Z,30.2513,-88.0778,5.972,8.44,1111122 
DISL,ioos:station:DISL:DISL:1,2008-05-05T06:00:00Z,30.2513,-88.0778,6.038,8.75,1111122 
DISL,ioos:station:DISL:DISL:1,2008-05-05T06:30:00Z,30.2513,-88.0778,6.135,8.36,1111122 
DISL,ioos:station:DISL:DISL:1,2008-05-05T07:00:00Z,30.2513,-88.0778,6.207,7.87,1111122 
DISL,ioos:station:DISL:DISL:1,2008-05-05T07:30:00Z,30.2513,-88.0778,6.267,6.53,1111122 
DISL,ioos:station:DISL:DISL:1,2008-05-05T08:00:00Z,30.2513,-88.0778,6.269,6.59,1111122 
DISL,ioos:station:DISL:DISL:1,2008-05-05T08:30:00Z,30.2513,-88.0778,6.414,6.3,1111122 
DISL,ioos:station:DISL:DISL:1,2008-05-05T09:00:00Z,30.2513,-88.0778,6.39,6.05,1111122 
DISL,ioos:station:DISL:DISL:1,2008-05-05T09:30:00Z,30.2513,-88.0778,6.463,5.9,1111122 
DISL,ioos:station:DISL:DISL:1,2008-05-05T10:00:00Z,30.2513,-88.0778,6.548,5.85,1111122 
DISL,ioos:station:DISL:DISL:1,2008-05-05T10:30:00Z,30.2513,-88.0778,6.662,6.1,1111122 
DISL,ioos:station:DISL:DISL:1,2008-05-05T11:00:00Z,30.2513,-88.0778,6.737,6.33,1111122 
DISL,ioos:station:DISL:DISL:1,2008-05-05T11:30:00Z,30.2513,-88.0778,6.865,6.17,1111122 
DISL,ioos:station:DISL:DISL:1,2008-05-05T12:00:00Z,30.2513,-88.0778,6.926,7.06,1111122 
DISL,ioos:station:DISL:DISL:1,2008-05-05T12:30:00Z,30.2513,-88.0778,6.859,6.82,1111122 
DISL,ioos:station:DISL:DISL:1,2008-05-05T13:00:00Z,30.2513,-88.0778,7.03,6.62,1111122 
DISL,ioos:station:DISL:DISL:1,2008-05-05T13:30:00Z,30.2513,-88.0778,7.09,6.2,1111122 
DISL,ioos:station:DISL:DISL:1,2008-05-05T14:00:00Z,30.2513,-88.0778,7.07,6.21,1111122 
DISL,ioos:station:DISL:DISL:1,2008-05-05T14:30:00Z,30.2513,-88.0778,7.12,6.42,1111122 
DISL,ioos:station:DISL:DISL:1,2008-05-05T15:00:00Z,30.2513,-88.0778,7.1,6.44,1111122 
DISL,ioos:station:DISL:DISL:1,2008-05-05T15:30:00Z,30.2513,-88.0778,7.08,6.51,1111122 
DISL,ioos:station:DISL:DISL:1,2008-05-05T16:00:00Z,30.2513,-88.0778,7.08,7.0,1111122 
DISL,ioos:station:DISL:DISL:1,2008-05-05T16:30:00Z,30.2513,-88.0778,7.1,7.17,1111122 
DISL,ioos:station:DISL:DISL:1,2008-05-05T17:00:00Z,30.2513,-88.0778,7.08,7.3,1111122 
DISL,ioos:station:DISL:DISL:1,2008-05-05T17:30:00Z,30.2513,-88.0778,6.952,7.62,1111122 
DISL,ioos:station:DISL:DISL:1,2008-05-05T18:00:00Z,30.2513,-88.0778,6.832,7.71,1111122 
DISL,ioos:station:DISL:DISL:1,2008-05-05T18:30:00Z,30.2513,-88.0778,6.724,7.94,1111122 
DISL,ioos:station:DISL:DISL:1,2008-05-05T19:00:00Z,30.2513,-88.0778,6.615,8.1,1111122 
DISL,ioos:station:DISL:DISL:1,2008-05-05T19:30:00Z,30.2513,-88.0778,6.525,8.17,1111122 
DISL,ioos:station:DISL:DISL:1,2008-05-05T20:00:00Z,30.2513,-88.0778,6.41,7.94,1111122 
DISL,ioos:station:DISL:DISL:1,2008-05-05T20:30:00Z,30.2513,-88.0778,6.284,8.03,1111122 
DISL,ioos:station:DISL:DISL:1,2008-05-05T21:00:00Z,30.2513,-88.0778,6.229,9.33,1111122 
DISL,ioos:station:DISL:DISL:1,2008-05-05T21:30:00Z,30.2513,-88.0778,6.109,9.37,1111122 
DISL,ioos:station:DISL:DISL:1,2008-05-05T22:00:00Z,30.2513,-88.0778,5.973,9.24,1111122 
DISL,ioos:station:DISL:DISL:1,2008-05-05T22:30:00Z,30.2513,-88.0778,5.879,9.18,1111122 
DISL,ioos:station:DISL:DISL:1,2008-05-05T23:00:00Z,30.2513,-88.0778,5.724,9.12,1111122 
DISL,ioos:station:DISL:DISL:1,2008-05-05T23:30:00Z,30.2513,-88.0778,5.605,8.93,1111122 
DISL,ioos:station:DISL:DISL:1,2008-05-06T00:00:00Z,30.2513,-88.0778,5.545,8.72,1111122 
DISL,ioos:station:DISL:DISL:1,2008-05-06T00:30:00Z,30.2513,-88.0778,5.519,8.68,1111122 
DISL,ioos:station:DISL:DISL:1,2008-05-06T01:00:00Z,30.2513,-88.0778,5.416,8.76,1111122 
DISL,ioos:station:DISL:DISL:1,2008-05-06T01:30:00Z,30.2513,-88.0778,5.302,8.93,1111122 
DISL,ioos:station:DISL:DISL:1,2008-05-06T02:00:00Z,30.2513,-88.0778,5.257,8.76,1111122 
DISL,ioos:station:DISL:DISL:1,2008-05-06T02:30:00Z,30.2513,-88.0778,5.171,8.79,1111122 
DISL,ioos:station:DISL:DISL:1,2008-05-06T03:00:00Z,30.2513,-88.0778,5.161,8.8,1111122 
DISL,ioos:station:DISL:DISL:1,2008-05-06T03:30:00Z,30.2513,-88.0778,5.182,8.68,1111122 
DISL,ioos:station:DISL:DISL:1,2008-05-06T04:00:00Z,30.2513,-88.0778,5.3,8.57,1111122 
DISL,ioos:station:DISL:DISL:1,2008-05-06T04:30:00Z,30.2513,-88.0778,5.3,8.47,1111122 
DISL,ioos:station:DISL:DISL:1,2008-05-06T05:00:00Z,30.2513,-88.0778,5.391,8.56,1111122 
DISL,ioos:station:DISL:DISL:1,2008-05-06T05:30:00Z,30.2513,-88.0778,5.415,8.46,1111122 
DISL,ioos:station:DISL:DISL:1,2008-05-06T06:00:00Z,30.2513,-88.0778,5.505,8.19,1111122 
DISL,ioos:station:DISL:DISL:1,2008-05-06T06:30:00Z,30.2513,-88.0778,5.55,7.95,1111122 
DISL,ioos:station:DISL:DISL:1,2008-05-06T07:00:00Z,30.2513,-88.0778,5.608,7.8,1111122 
DISL,ioos:station:DISL:DISL:1,2008-05-06T07:30:00Z,30.2513,-88.0778,5.671,7.74,1111122 
DISL,ioos:station:DISL:DISL:1,2008-05-06T08:00:00Z,30.2513,-88.0778,5.81,7.5,1111122 
DISL,ioos:station:DISL:DISL:1,2008-05-06T08:30:00Z,30.2513,-88.0778,5.986,6.67,1111122 
DISL,ioos:station:DISL:DISL:1,2008-05-06T09:00:00Z,30.2513,-88.0778,5.925,6.61,1111122 
DISL,ioos:station:DISL:DISL:1,2008-05-06T09:30:00Z,30.2513,-88.0778,6.018,6.67,1111122 
DISL,ioos:station:DISL:DISL:1,2008-05-06T10:00:00Z,30.2513,-88.0778,6.124,6.68,1111122 
DISL,ioos:station:DISL:DISL:1,2008-05-06T10:30:00Z,30.2513,-88.0778,6.267,6.57,1111122 
DISL,ioos:station:DISL:DISL:1,2008-05-06T11:00:00Z,30.2513,-88.0778,6.398,6.47,1111122 
DISL,ioos:station:DISL:DISL:1,2008-05-06T11:30:00Z,30.2513,-88.0778,6.5,6.58,1111122 
DISL,ioos:station:DISL:DISL:1,2008-05-06T12:00:00Z,30.2513,-88.0778,6.625,6.45,1111122 
DISL,ioos:station:DISL:DISL:1,2008-05-06T12:30:00Z,30.2513,-88.0778,6.801,6.53,1111122 
DISL,ioos:station:DISL:DISL:1,2008-05-06T13:00:00Z,30.2513,-88.0778,6.891,6.68,1111122 
DISL,ioos:station:DISL:DISL:1,2008-05-06T13:30:00Z,30.2513,-88.0778,6.948,6.69,1111122 
DISL,ioos:station:DISL:DISL:1,2008-05-06T14:00:00Z,30.2513,-88.0778,7.04,6.76,1111122 
DISL,ioos:station:DISL:DISL:1,2008-05-06T14:30:00Z,30.2513,-88.0778,7.1,6.88,1111122 
DISL,ioos:station:DISL:DISL:1,2008-05-06T15:00:00Z,30.2513,-88.0778,7.18,7.14,1111122 
DISL,ioos:station:DISL:DISL:1,2008-05-06T15:30:00Z,30.2513,-88.0778,7.2,7.03,1111122 
DISL,ioos:station:DISL:DISL:1,2008-05-06T16:00:00Z,30.2513,-88.0778,7.17,7.22,1111122 